ONEWEB-0711 (55174 NORAD) Tracking and Keplerian Element Data

This shows tracking and keplerian element data for the satellite.

Feedback or suggestion? Click here.




ElementValue
Catalog55174
NameONEWEB-0711
Epoch Orbit130
Epoch Day13.91667824
Epoch Year2023
RAAN284.1425
Inclination86.5091
Eccentricity0.0008288
Argument of Perigee202.0507
Mean Anonmoly57.7237
Mean Motion14.90516683
Decay Rate-0.00048502
L11 55174U 23004AL 23013.91667824 -.00048502 00000+0 -50085-2 0 9993
L22 55174 86.5091 284.1425 0008288 202.0507 57.7237 14.90516683 1309



Live tracking and technical data element details for ONEWEB-0711 (NORAD 55174). ONEWEB-0711 can be tracked NOW for your location showing map with azimuth and elevation plus other details from your city location.







IsCatalogInMostPopularTable: catalog: 55174, numindb: 4
Update: records affected: 1



GetName: 55174 ONEWEB-0711

Hit Count: updated at: Tue, 07 Feb 2023 15:38:23 GMT